Location: Larkspur
(54.4391°N, 113.7691°W)
Time: 17:36:03
(UTC+00:00)

Oscar 19 - Pass Details

Date: 03 December 2023
Orbit: 771 x 789 km, 98.9° (Epoch: 03 March)

Event Time Altitude Azimuth Distance (km) Brightness Sun altitude
Rises 11:22:40 0° 23° (NNE) 3,272 14.3 -35.4°
Reaches altitude 10° 11:25:24 10° 37° (NE) 2,342 13.6 -35.0°
Maximum altitude 11:29:37 25° 92° (E) 1,548 12.7 -34.4°
Drops below altitude 10° 11:33:48 10° 147° (SSE) 2,338 13.3 -33.8°
Sets 11:36:31 0° 160° (SSE) 3,264 14.0 -33.4°
